[[{"header":{"parameterUnit":"m.s-1","parameterCategory":1,"la1":30.2991,"la2":30.254,"lo1":-89.0895,"lo2":-89.0444,"dy":0.0017,"dx":0.0017,"nx":28,"ny":28,"refTime":"2023-11-02T03:00:00:Z","depth":0,"parameterNumber":2,"parameterNumberName":"U-component_of_WINDS"},"data":[0,0,0,0,0,0,0,0,0,0,0,0,0,0,0,0,0,0,0,0,0,0,0,0,0,0,0,0,0,0,0,0,0,0,0,0,0,0,0,0,0,0,0,0,0,0,0,0,0,0,0,0,0,0,0,0,0,0,-4.3702,-4.3702,0,-4.3738,-4.3738,-4.3738,-4.3597,-4.3593,-4.3589,-4.3585,-4.362,-4.3625,-4.3629,0,0,0,0,0,0,0,0,0,0,0,0,0,-4.3509,-4.3513,-4.3702,-4.3702,-4.3703,-4.3738,-4.3738,-4.3739,-4.3598,-4.3593,-4.3588,-4.3583,-4.3618,-4.3624,-4.363,0,0,0,0,0,0,0,0,0,0,0,0,0,-4.3574,-4.3514,-4.3702,-4.3637,-4.3631,-4.3738,-4.3738,-4.3739,-4.3599,-4.3593,-4.3586,-4.3581,-4.3616,-4.3623,-4.3631,-4.3801,0,0,-4.3653,-4.3656,0,0,0,0,0,0,0,0,-4.357,-4.3581,-4.3646,-4.3641,-4.3635,-4.3657,-4.3683,-4.3759,-4.3601,-4.3611,-4.3585,-4.3577,-4.3637,-4.3642,-4.3663,-4.3802,-4.3804,-4.3653,-4.3658,-4.3661,-4.3663,0,0,0,0,0,0,0,-4.3566,-4.3578,-4.3716,-4.3647,-4.3641,-4.3605,-4.3607,-4.3697,-4.3659,-4.361,-4.36,-4.3606,-4.3633,-4.3656,-4.3662,-4.3804,-4.3653,-4.366,-4.3664,-4.3667,-4.4082,-4.4089,0,0,0,0,0,0,-4.357,-4.3576,-4.3715,-4.3717,-4.3587,-4.3614,-4.3616,-4.3656,-4.3657,-4.3652,-4.3611,-4.3599,-4.3647,-4.3654,-4.3663,-4.3859,-4.3661,-4.3668,-4.3672,-4.4076,-4.4084,-4.4091,0,0,0,0,0,0,-4.3567,-4.3584,-4.3713,-4.3644,-4.3657,-4.3623,-4.367,-4.366,-4.3683,-4.3658,-4.3651,-4.3642,-4.3642,-4.3653,-4.3767,-4.3859,-4.3671,-4.3677,-4.4068,-4.4078,-4.4087,-4.4256,0,0,0,0,0,0,-4.3562,-4.3583,-4.3648,-4.3646,-4.3662,-4.3818,-4.3675,-4.3665,-4.3696,-4.3681,-4.3685,-4.368,-4.3638,-4.3757,-4.3774,-4.3865,-4.3683,-4.4059,-4.4072,-4.4084,-4.4242,-4.427,-4.4295,0,0,0,0,0,-4.3555,-4.3694,-4.3652,-4.367,-4.3742,-4.3823,-4.3832,-4.3781,-4.3704,-4.3768,-4.3752,-4.368,-4.3847,-4.377,-4.3788,-4.3883,-4.4053,-4.4069,-4.4083,-4.423,-4.4265,-4.4294,0,0,0,0,0,0,-4.3708,-4.3693,-4.3646,-4.3789,-4.3809,-4.3799,-4.3879,-4.382,-4.3862,-4.3846,-4.3781,-4.3783,-4.3908,-4.3907,-4.3821,-4.4046,-4.3936,-4.3956,-4.4042,-4.4075,-4.4101,-4.4097,-4.3689,0,0,0,0,0,-4.3758,-4.3826,-4.3809,-4.3937,-4.3949,-4.3913,-4.3947,-4.3906,-4.3923,-4.3931,-4.3923,-4.3942,-4.3998,-4.4037,-4.4088,-4.4242,-4.424,-4.4316,-4.4343,-4.4365,-4.4381,-4.446,-4.4493,-4.4141,-4.414,-4.414,0,0,-4.3863,-4.3863,-4.391,-4.3968,-4.3978,-4.4048,-4.3921,-4.4001,-4.4052,-4.3943,-4.4049,-4.4045,-4.4062,-4.4196,-4.4255,-4.4199,-4.4479,-4.4384,-4.4402,-4.4406,-4.4479,-4.4513,-4.4542,-4.4151,-4.4149,-4.4147,0,0,-4.4088,-4.4097,-4.4202,-4.4216,-4.4233,-4.4208,-4.4234,-4.4234,-4.4226,-4.4333,-4.4251,-4.4311,-4.4411,-4.4425,-4.4446,-4.4677,-4.4611,-4.4696,-4.4833,-4.4911,-4.4939,-4.4963,-4.5043,-4.5072,-4.4713,-4.4714,-4.4714,0,-4.4215,-4.4319,-4.4264,-4.435,-4.4377,-4.4282,-4.4387,-4.4403,-4.4436,-4.4457,-4.4394,-4.4516,-4.4521,-4.4656,-4.4712,-4.4733,-4.4759,-4.4694,-4.4939,-4.4963,-4.4985,-4.506,-4.5091,-4.4724,-4.4723,-4.4722,-4.4721,0,-4.4473,-4.4546,-4.463,-4.4664,-4.4701,-4.4797,-4.4755,-4.4799,-4.4756,-4.4737,-4.4845,-4.4848,-4.4897,-4.4927,-4.4886,-4.5056,-4.502,-4.4951,-4.4838,-4.5029,-4.5099,-4.5127,-4.4738,-4.4734,-4.4731,-4.4729,0,0,-4.4793,-4.4797,-4.4828,-4.4841,-4.4854,-4.4909,-4.5,-4.5048,-4.5085,-4.5112,-4.5185,-4.5272,-4.5206,-4.523,-4.519,-4.5259,-4.5438,-4.5179,-4.5178,-4.5224,-4.5623,-4.5673,-4.5708,-4.5396,-4.5401,-4.5406,-4.5621,0,-4.5012,-4.5167,-4.5121,-4.5276,-4.5342,-4.5253,-4.5332,-4.5348,-4.5333,-4.5386,-4.5369,-4.543,-4.5341,-4.5354,-4.5419,-4.5403,-4.5517,-4.5387,-4.5461,-4.5464,-4.5456,-4.5745,-4.5798,-4.6001,-4.5648,-4.5652,-4.5656,0,-4.5287,-4.5324,-4.5487,-4.5487,-4.5513,-4.5585,-4.5624,-4.5676,-4.5692,-4.5676,-4.5703,-4.5649,-4.5736,-4.5627,-4.5745,-4.5658,-4.5686,-4.5683,-4.569,-4.5692,-4.5569,-4.5751,-4.6065,-4.6094,-4.5698,-4.5695,-4.5692,0,-4.55,-4.5592,-4.5699,-4.5714,-4.5718,-4.577,-4.5775,-4.5784,-4.5816,-4.5851,-4.587,-4.5915,-4.5939,-4.5974,-4.5933,-4.5857,-4.6057,-4.5945,-4.6044,-4.6046,-4.6087,-4.6085,-4.6406,-4.6112,-4.6112,-4.6111,-4.611,0,-4.5747,-4.5849,-4.5795,-4.5861,-4.5972,-4.5918,-4.603,-4.6023,-4.6033,-4.6095,-4.6023,-4.6083,-4.6026,-4.6081,-4.6049,-4.6151,-4.6163,-4.6151,-4.6141,-4.6156,-4.6157,-4.617,-4.6154,-4.6119,-4.6117,-4.6116,-4.6114,0,-4.6002,-4.5971,-4.6082,-4.6077,-4.6078,-4.616,-4.6155,-4.6215,-4.6196,-4.6276,-4.6292,-4.6261,-4.6322,-4.6285,-4.6347,-4.6325,-4.6457,-4.6429,-4.6451,-4.6443,-4.6543,-4.6533,-4.6882,-4.6924,-4.6606,-4.6609,-4.6612,0,-4.616,-4.6236,-4.624,-4.6276,-4.6285,-4.6346,-4.6377,-4.6328,-4.6363,-4.6387,-4.6444,-4.6499,-4.6539,-4.664,-4.6623,-4.6669,-4.664,-4.6759,-4.6646,-4.6658,-4.6637,-4.6632,-4.6638,-4.6781,-4.6784,-4.6787,-4.679,0,-4.6442,-4.6423,-4.6471,-4.6515,-4.6555,-4.6587,-4.6613,-4.6647,-4.6597,-4.6641,-4.6702,-4.6734,-4.6797,-4.6851,-4.689,-4.6893,-4.6833,-4.6826,-4.6851,-4.6865,-4.6873,-4.6867,-4.651,-4.6817,-4.6815,-4.6813,-4.6811,-4.681,-4.6651,-4.6713,-4.6725,-4.6782,-4.6796,-4.6822,-4.6877,-4.6865,-4.6916,-4.6963,-4.6931,-4.7003,-4.7016,-4.7062,-4.7073,-4.7128,-4.7079,-4.7116,-4.7125,-4.7134,-4.7146,-4.6868,-4.7135,-4.7134,-4.7133,-4.7133,-4.7132,0,-4.6926,-4.6929,-4.6982,-4.702,-4.7064,-4.7006,-4.7031,-4.7071,-4.7136,-4.7153,-4.7195,-4.7265,-4.7317,-4.7304,-4.7351,-4.7397,-4.7371,-4.7411,-4.7405,-4.7406,-4.7188,-4.716,-4.7431,-4.7431,-4.7431,-4.7431,-4.7431,-4.7431,-4.7074,-4.7176,-4.7158,-4.7267,-4.7269,-4.7339,-4.7358,-4.7381,-4.7394,-4.7475,-4.7518,-4.751,-4.7515,-4.7562,-4.7607,-4.7602,-4.7621,-4.7671,-4.7655,-4.7451,-4.7422,-4.7393,-4.7366,-4.7676,-4.7676,-4.7867,-4.7869,-4.787]},{"header":{"parameterUnit":"m.s-1","parameterCategory":1,"la1":30.2991,"la2":30.254,"lo1":-89.0895,"lo2":-89.0444,"dy":0.0017,"dx":0.0017,"nx":28,"ny":28,"refTime":"2023-11-02T03:00:00:Z","depth":0,"parameterNumber":3,"parameterNumberName":"V-component_of_WINDS"},"data":[0,0,0,0,0,0,0,0,0,0,0,0,0,0,0,0,0,0,0,0,0,0,0,0,0,0,0,0,0,0,0,0,0,0,0,0,0,0,0,0,0,0,0,0,0,0,0,0,0,0,0,0,0,0,0,0,0,0,-2.3014,-2.3014,0,-2.3078,-2.3079,-2.3079,-2.3088,-2.3087,-2.3087,-2.3086,-2.3149,-2.3152,-2.3154,0,0,0,0,0,0,0,0,0,0,0,0,0,-2.2895,-2.2897,-2.3014,-2.3014,-2.3015,-2.3078,-2.3079,-2.3079,-2.3088,-2.3087,-2.3087,-2.3086,-2.3149,-2.3151,-2.3154,0,0,0,0,0,0,0,0,0,0,0,0,0,-2.2951,-2.2897,-2.3013,-2.3027,-2.3029,-2.3077,-2.3079,-2.308,-2.3088,-2.3087,-2.3086,-2.3086,-2.3148,-2.3151,-2.3154,-2.3193,0,0,-2.3165,-2.3166,0,0,0,0,0,0,0,0,-2.2948,-2.2955,-2.3024,-2.3026,-2.3028,-2.3074,-2.306,-2.3118,-2.3088,-2.3066,-2.3086,-2.3085,-2.3125,-2.313,-2.3144,-2.3196,-2.3199,-2.3165,-2.3167,-2.3168,-2.3169,0,0,0,0,0,0,0,-2.2944,-2.2953,-2.3039,-2.3025,-2.3028,-2.3029,-2.3036,-2.3071,-2.3099,-2.3068,-2.3068,-2.3076,-2.3126,-2.3141,-2.3145,-2.3199,-2.3165,-2.3168,-2.317,-2.3171,-2.3283,-2.3284,0,0,0,0,0,0,-2.2938,-2.2949,-2.3037,-2.3041,-2.2985,-2.3032,-2.3039,-2.306,-2.3099,-2.3104,-2.3077,-2.3076,-2.3135,-2.3142,-2.3148,-2.3194,-2.3168,-2.3171,-2.3173,-2.3282,-2.3284,-2.3285,0,0,0,0,0,0,-2.2935,-2.2946,-2.3034,-2.2995,-2.3007,-2.3035,-2.3058,-2.3062,-2.3077,-2.3106,-2.3111,-2.3087,-2.3135,-2.3143,-2.3181,-2.3196,-2.3173,-2.3176,-2.3281,-2.3283,-2.3284,-2.3287,0,0,0,0,0,0,-2.2932,-2.2945,-2.2961,-2.2996,-2.3009,-2.3068,-2.3059,-2.3064,-2.3083,-2.3083,-2.3117,-2.3122,-2.3135,-2.3176,-2.3184,-2.32,-2.3179,-2.328,-2.3282,-2.3284,-2.3286,-2.3288,-2.3291,0,0,0,0,0,-2.2928,-2.2959,-2.2962,-2.2972,-2.303,-2.3069,-2.3076,-2.3092,-2.3084,-2.31,-2.3118,-2.312,-2.3193,-2.318,-2.319,-2.3206,-2.3279,-2.3281,-2.3284,-2.3285,-2.3288,-2.3291,0,0,0,0,0,0,-2.2925,-2.2964,-2.2967,-2.3011,-2.3037,-2.307,-2.309,-2.3095,-2.3122,-2.3121,-2.3138,-2.3146,-2.3183,-2.3198,-2.3183,-2.3244,-2.3235,-2.324,-2.3233,-2.3236,-2.3239,-2.3234,-2.3181,0,0,0,0,0,-2.2929,-2.2959,-2.2991,-2.3027,-2.3039,-2.3063,-2.308,-2.309,-2.3117,-2.3127,-2.3148,-2.3173,-2.3201,-2.322,-2.3248,-2.3288,-2.3294,-2.3304,-2.3307,-2.3309,-2.3312,-2.3332,-2.3336,-2.3292,-2.3292,-2.3292,0,0,-2.2939,-2.2964,-2.2982,-2.3027,-2.3048,-2.3076,-2.3072,-2.3103,-2.3124,-2.3132,-2.3169,-2.3185,-2.3214,-2.3253,-2.3271,-2.3267,-2.3325,-2.3311,-2.3313,-2.3315,-2.3335,-2.3339,-2.3342,-2.3293,-2.3293,-2.3293,0,0,-2.2971,-2.2994,-2.3025,-2.3046,-2.3077,-2.3092,-2.3099,-2.3132,-2.3143,-2.3181,-2.3187,-2.3211,-2.326,-2.328,-2.3296,-2.3333,-2.3336,-2.3342,-2.3355,-2.3374,-2.3378,-2.3381,-2.3392,-2.3396,-2.3345,-2.3345,-2.3345,0,-2.2979,-2.3024,-2.304,-2.3071,-2.3089,-2.3098,-2.3128,-2.3147,-2.3186,-2.3198,-2.3193,-2.3253,-2.3274,-2.3316,-2.3325,-2.3339,-2.3346,-2.3338,-2.3376,-2.3379,-2.3382,-2.3393,-2.3398,-2.3345,-2.3345,-2.3345,-2.3345,0,-2.303,-2.3061,-2.3082,-2.3119,-2.314,-2.3171,-2.319,-2.3209,-2.3216,-2.3231,-2.3268,-2.3292,-2.3324,-2.3335,-2.3343,-2.3378,-2.3374,-2.3373,-2.3364,-2.3387,-2.3397,-2.3402,-2.3346,-2.3346,-2.3346,-2.3346,0,0,-2.3063,-2.3108,-2.3115,-2.3131,-2.3166,-2.3189,-2.3219,-2.3251,-2.3266,-2.3292,-2.3316,-2.3356,-2.3354,-2.3372,-2.3382,-2.3399,-2.3424,-2.3395,-2.3396,-2.3398,-2.3463,-2.3463,-2.3468,-2.3427,-2.3428,-2.3428,-2.346,0,-2.3098,-2.3152,-2.3167,-2.3212,-2.3239,-2.3247,-2.3272,-2.3295,-2.331,-2.3334,-2.3349,-2.3377,-2.3373,-2.3384,-2.3401,-2.3418,-2.3437,-2.3416,-2.3447,-2.3448,-2.3439,-2.3474,-2.3475,-2.3503,-2.3464,-2.3465,-2.3465,0,-2.3146,-2.3173,-2.3221,-2.325,-2.3262,-2.3285,-2.3314,-2.3337,-2.3363,-2.3371,-2.3391,-2.3399,-2.3428,-2.3418,-2.3457,-2.3442,-2.3456,-2.3465,-2.3467,-2.347,-2.3458,-2.3476,-2.3513,-2.3517,-2.3472,-2.3472,-2.3471,0,-2.3163,-2.3211,-2.3245,-2.3259,-2.3294,-2.331,-2.3325,-2.335,-2.3367,-2.3392,-2.3403,-2.3431,-2.3446,-2.3466,-2.348,-2.3472,-2.3518,-2.3509,-2.3524,-2.3524,-2.3533,-2.3532,-2.3572,-2.3544,-2.3544,-2.3544,-2.3544,0,-2.32,-2.3228,-2.3253,-2.3274,-2.3306,-2.3321,-2.3352,-2.3367,-2.3389,-2.3411,-2.342,-2.3441,-2.3458,-2.3481,-2.3492,-2.3522,-2.3529,-2.3536,-2.3538,-2.3535,-2.3534,-2.3543,-2.3541,-2.3545,-2.3545,-2.3545,-2.3544,0,-2.3224,-2.3242,-2.328,-2.331,-2.3318,-2.3339,-2.3364,-2.3384,-2.3398,-2.3427,-2.3434,-2.3456,-2.3483,-2.3499,-2.3534,-2.3541,-2.3573,-2.3575,-2.3565,-2.3566,-2.358,-2.3577,-2.3626,-2.3632,-2.3601,-2.3601,-2.3602,0,-2.3246,-2.3268,-2.33,-2.3316,-2.3331,-2.3358,-2.3375,-2.3391,-2.3408,-2.3438,-2.3453,-2.3481,-2.3504,-2.3547,-2.3565,-2.359,-2.3592,-2.3607,-2.3596,-2.3591,-2.3591,-2.3589,-2.359,-2.3609,-2.3609,-2.361,-2.361,0,-2.3282,-2.3289,-2.3315,-2.3343,-2.3363,-2.3386,-2.3408,-2.3421,-2.344,-2.3459,-2.3487,-2.3505,-2.3539,-2.3566,-2.3593,-2.3607,-2.3611,-2.3613,-2.3618,-2.3614,-2.3606,-2.3609,-2.3569,-2.3612,-2.3612,-2.3611,-2.3611,-2.3611,-2.3305,-2.3324,-2.3349,-2.3376,-2.3395,-2.3415,-2.3434,-2.345,-2.3474,-2.3504,-2.3512,-2.354,-2.3563,-2.36,-2.3614,-2.3636,-2.3633,-2.3641,-2.3642,-2.3643,-2.3643,-2.3603,-2.3641,-2.3641,-2.3641,-2.3641,-2.3641,0,-2.334,-2.3356,-2.3381,-2.3412,-2.3433,-2.3435,-2.346,-2.3477,-2.3502,-2.3523,-2.3546,-2.3576,-2.3602,-2.3621,-2.3647,-2.3661,-2.3663,-2.3667,-2.3665,-2.3668,-2.3645,-2.3637,-2.3664,-2.3664,-2.3664,-2.3664,-2.3664,-2.3664,-2.3361,-2.3393,-2.3403,-2.3443,-2.3459,-2.3487,-2.3501,-2.3519,-2.3536,-2.357,-2.3591,-2.3604,-2.3624,-2.3651,-2.3674,-2.3678,-2.3687,-2.369,-2.3695,-2.3673,-2.367,-2.3668,-2.3661,-2.3692,-2.3692,-2.3717,-2.3717,-2.3717]}]]